Location: Moscow
(55.7500°N, 37.5830°E)
Time: 08:36:46
(UTC+03:00)

N. Korean satellite - Pass Details

Date: 28 October 2021
Orbit: 446 x 495 km, 97.3° (Epoch: 04 December)

Event Time Altitude Azimuth Distance (km) Brightness Sun altitude
Rises 05:03:46 0° 23° (NNE) 2,600 10.7 -20.6°
Reaches altitude 10° 05:06:12 10° 38° (NE) 1,707 9.9 -20.3°
Maximum altitude 05:09:11 23° 92° (E) 1,094 9.2 -19.9°
Drops below altitude 10° 05:12:07 10° 147° (SSE) 1,681 9.6 -19.5°
Sets 05:14:29 0° 162° (SSE) 2,548 10.4 -19.1°
